Wind_Speed
37 37 38 39 41 42 43 44 46 47 48 49 50 50 50 51 52 53 54 55 56 57 57 57 57 56 56 55 55 55 55 55 55 54 53 52 52 51 50 50 49 49 49
39 39 40 41 43 44 45 46 47 48 49 50 51 51 51 52 52 53 54 55 56 57 58 58 58 58 57 57 57 57 57 56 56 55 54 54 53 52 52 52 51 51 50
40 41 41 42 43 45 46 47 48 49 50 51 52 52 52 52 52 52 53 54 56 56 57 57 58 58 59 58 58 58 58 57 56 56 56 55 54 55 53 52 52 52 51
41 40 41 42 43 44 46 47 48 49 50 51 52 52 52 52 51 51 51 53 54 55 55 56 56 57 58 60 59 59 59 58 57 56 56 55 55 56 54 53 53 53 52
41 41 41 42 43 44 45 46 47 48 49 50 51 51 52 51 51 50 50 51 52 53 54 54 54 55 56 57 59 58 57 57 57 56 55 56 55 55 56 54 53 53 53
41 41 41 41 43 44 45 45 46 47 48 49 50 50 51 50 49 49 48 49 50 51 51 53 53 53 53 53 54 55 55 55 55 55 55 55 54 55 55 55 54 53 52
41 42 42 42 42 43 44 44 45 46 46 47 48 48 49 49 48 47 47 47 48 49 49 50 50 51 51 51 51 52 53 53 53 53 53 53 53 53 53 54 53 53 52
41 42 42 43 43 43 43 44 45 45 45 45 46 46 46 47 47 47 47 46 46 48 48 48 48 48 49 49 50 50 50 50 50 50 49 49 50 51 50 51 51 52 51
41 41 41 42 43 42 42 43 44 44 44 44 44 44 45 45 46 47 46 45 46 46 46 46 46 46 47 47 48 48 48 48 49 48 48 47 48 48 48 48 49 50 50
39 39 40 41 42 42 42 44 43 43 43 43 43 43 44 44 44 45 45 45 45 46 46 44 44 44 44 45 46 47 47 47 47 47 47 48 48 48 47 46 46 48 48
37 38 38 40 41 41 41 41 42 42 43 43 43 43 43 42 43 43 43 43 43 43 43 43 43 43 43 44 45 46 46 46 46 47 47 46 46 46 45 45 46 46 46
37 37 38 39 40 40 40 41 41 42 42 42 41 41 41 40 41 41 41 41 41 41 42 42 42 42 42 43 44 45 45 45 45 46 45 45 44 43 42 43 43 44 44
36 36 37 38 38 39 40 41 41 42 41 41 41 41 40 39 40 40 39 39 40 40 41 41 41 40 40 40 41 41 41 42 42 43 43 42 41 41 40 41 42 43 42
37 37 37 38 38 38 39 40 40 41 42 41 40 40 39 39 38 39 39 39 39 39 40 39 39 39 39 39 38 38 39 39 40 40 41 40 39 39 39 40 41 42 41
37 37 38 38 38 38 39 40 40 41 41 40 39 39 39 39 38 37 38 37 37 37 37 37 37 37 37 37 36 36 37 38 38 38 38 38 37 38 37 38 39 39 39
38 38 38 38 38 38 38 39 39 39 39 39 38 38 37 37 37 36 36 35 35 35 35 35 35 36 36 36 36 35 36 37 36 36 36 36 35 35 35 36 37 37 37
38 38 39 39 38 38 38 38 38 37 37 36 36 36 36 36 36 36 35 34 34 33 34 34 35 36 36 35 36 36 35 35 35 35 35 35 34 35 34 34 35 36 36
38 38 37 37 37 37 37 37 36 36 36 35 35 34 35 34 34 34 34 33 32 32 33 33 34 34 34 34 33 34 34 33 33 33 33 33 33 34 34 34 34 35 36
37 36 36 36 36 36 36 36 36 36 35 35 35 35 34 33 32 32 31 31 31 31 31 31 31 31 31 31 31 32 31 31 31 32 32 32 33 33 33 34 34 35 36
36 36 36 37 37 37 37 36 36 36 36 36 35 34 33 32 32 32 31 30 29 28 28 28 28 29 29 29 30 30 30 31 31 32 33 33 33 33 33 33 34 35 35
37 37 37 37 37 37 37 37 36 36 36 35 35 33 32 32 31 31 30 28 26 25 25 26 26 26 27 28 29 29 30 30 31 31 32 32 32 33 33 33 32 32 32
37 37 37 38 37 37 36 36 36 35 35 34 33 32 31 30 29 28 27 26 25 24 24 25 25 25 26 27 28 29 29 29 30 30 31 31 31 31 31 31 30 30 31
36 36 36 36 36 35 35 34 33 33 32 31 30 29 29 28 27 26 24 25 25 25 24 24 24 24 24 25 26 27 27 27 27 28 29 29 29 29 29 30 29 29 29
34 34 34 33 33 32 31 31 30 29 28 26 26 25 25 25 25 25 24 24 24 24 23 23 23 22 23 24 24 24 23 24 25 26 26 26 26 26 26 27 26 26 27
30 30 30 30 29 28 27 26 26 26 25 24 24 24 23 23 23 23 22 22 22 22 22 22 22 22 21 21 22 22 22 22 23 23 23 23 23 23 23 23 24 24 24
28 27 27 27 26 25 25 24 24 24 24 23 23 23 22 22 22 22 21 22 22 21 20 20 21 20 20 20 20 20 20 21 21 21 20 20 20 20 20 20 20 20 21
Wind_Direction
266 267 267 267 267 267 268 268 267 267 268 269 269 269 269 269 268 268 267 266 265 263 262 261 260 260 260 261 261 261 261 262 261 260 259 260 260 260 261 263 264 265 266
269 270 268 269 269 269 269 270 269 269 269 270 270 271 271 270 268 268 267 266 265 264 262 260 259 259 259 260 260 261 261 261 261 260 259 259 260 259 261 263 264 264 264
270 271 271 270 271 272 272 271 271 270 270 271 271 271 271 271 270 269 268 267 266 265 263 261 260 259 258 259 260 261 261 260 259 259 259 259 259 259 260 261 263 263 264
272 273 273 273 273 274 273 272 272 272 271 271 272 272 272 271 271 270 269 267 265 265 264 262 261 260 259 259 259 261 261 260 259 259 259 258 259 259 259 260 261 262 263
273 273 274 274 274 274 274 273 272 273 272 273 273 273 273 273 271 270 269 267 265 265 264 263 261 260 260 260 259 260 261 260 260 259 258 258 260 261 261 260 260 260 262
273 274 274 276 275 275 275 273 273 274 274 275 275 275 274 273 271 270 269 268 266 265 265 263 261 260 259 260 260 259 260 260 259 258 258 259 261 262 262 261 260 260 261
275 275 276 277 277 277 275 274 275 276 275 276 277 277 276 273 271 270 270 269 267 265 264 262 261 260 260 260 260 259 258 258 258 258 259 259 261 261 261 261 261 260 259
276 277 277 277 276 276 276 275 276 276 276 276 278 277 277 273 270 269 270 269 267 265 264 262 261 260 260 259 259 259 257 257 257 257 258 259 259 260 261 260 261 261 260
277 277 277 276 276 276 276 277 277 276 277 277 278 276 277 275 272 270 269 267 266 265 264 261 260 260 260 260 259 259 257 256 257 257 257 258 258 259 260 260 262 262 261
276 277 277 276 276 277 278 278 278 277 278 278 277 277 277 276 273 271 269 267 265 264 263 262 260 260 259 259 260 260 258 256 255 256 256 257 257 259 259 259 261 261 260
278 278 279 277 276 277 278 278 278 278 278 278 277 278 278 276 273 271 269 267 265 262 261 260 261 261 261 260 260 260 257 256 255 255 255 256 257 258 257 258 259 260 260
278 278 278 277 276 275 276 277 278 279 279 278 277 278 278 277 274 271 270 268 266 264 261 261 261 261 261 260 260 259 257 255 254 253 253 255 256 256 257 257 259 259 260
277 277 277 277 276 275 276 277 278 278 279 278 277 278 278 276 275 272 269 268 267 265 263 263 262 261 261 261 261 261 258 254 253 252 253 253 254 254 255 256 257 257 259
276 277 277 277 276 276 277 277 278 279 279 277 277 278 278 277 274 272 270 267 266 265 264 264 263 261 262 261 262 261 258 254 252 251 251 251 253 253 253 255 257 258 259
276 277 277 276 276 277 279 279 279 279 280 277 278 280 278 276 274 272 269 266 265 264 264 263 262 261 261 261 261 259 256 253 251 249 249 250 252 252 251 254 256 257 258
275 276 275 276 278 279 280 281 281 280 279 279 279 279 278 277 275 273 269 266 264 264 263 263 261 260 260 260 259 256 254 252 249 247 247 247 249 249 250 252 254 256 257
274 275 276 278 279 280 281 281 280 279 278 278 279 279 278 277 275 272 269 266 264 263 262 262 261 260 259 259 257 255 254 251 248 247 247 248 249 249 249 251 254 256 257
274 275 275 276 278 279 280 281 278 276 276 276 277 279 278 277 275 272 268 265 263 263 262 262 262 260 258 257 255 252 250 248 246 247 247 248 249 249 250 252 253 256 257
272 273 274 275 276 277 278 278 277 276 276 277 278 278 278 277 274 271 268 266 264 263 263 261 260 258 256 254 252 249 248 248 246 246 246 249 249 250 251 252 253 256 257
273 274 275 276 277 278 279 278 277 277 276 276 276 277 276 274 273 271 269 266 265 263 261 259 259 258 254 252 250 249 249 247 246 248 248 251 251 250 252 255 256 257 258
274 274 275 276 278 278 278 278 277 277 277 276 275 275 273 272 271 269 267 264 262 260 258 258 255 254 252 250 249 249 250 251 251 251 250 250 250 251 253 254 255 255 255
274 274 274 275 276 278 278 278 277 276 276 276 275 273 272 269 267 266 263 259 258 259 258 257 254 254 251 248 246 248 250 252 251 252 251 249 249 250 250 251 252 253 255
275 275 275 274 276 278 278 278 277 276 274 273 271 270 268 267 266 263 260 257 257 258 256 254 252 251 249 246 245 247 248 250 250 251 250 248 249 249 249 250 252 253 253
275 275 274 275 276 277 276 277 276 275 273 270 269 268 266 264 263 260 259 256 256 255 253 251 249 248 246 244 245 246 248 248 248 250 248 247 248 248 249 249 250 252 253
274 273 273 274 274 275 276 276 275 272 270 269 268 266 264 260 258 256 256 253 251 251 252 250 248 247 245 243 243 245 247 248 246 246 244 245 246 246 247 247 250 251 252
274 274 273 274 273 273 275 276 274 270 267 266 267 266 263 260 258 256 253 250 249 248 249 248 245 244 244 245 245 245 244 244 244 245 243 243 243 245 246 247 249 251 253
Height
5703 5703 5703 5703 5703 5703 5703 5703 5703 5703 5703 5702 5702 5702 5702 5702 5701 5700 5700 5700 5701 5702 5703 5705 5707 5709 5711 5713 5715 5716 5718 5720 5721 5723 5726 5728 5730 5732 5733 5735 5736 5737 5738
5693 5692 5692 5692 5691 5691 5691 5691 5690 5689 5689 5688 5688 5688 5688 5687 5686 5685 5684 5684 5685 5686 5687 5689 5691 5693 5696 5698 5700 5701 5703 5706 5707 5708 5711 5715 5718 5719 5720 5722 5723 5724 5725
5682 5681 5680 5679 5679 5678 5678 5677 5676 5675 5675 5674 5674 5673 5672 5672 5671 5670 5669 5669 5669 5669 5670 5672 5675 5677 5680 5682 5684 5686 5688 5690 5692 5693 5695 5699 5703 5705 5708 5708 5710 5711 5712
5670 5669 5668 5667 5666 5665 5664 5663 5662 5661 5660 5659 5658 5658 5657 5657 5656 5655 5654 5653 5653 5652 5654 5656 5658 5661 5663 5666 5668 5670 5672 5674 5677 5679 5680 5683 5686 5689 5693 5695 5696 5697 5699
5658 5657 5656 5654 5653 5652 5650 5648 5647 5646 5645 5644 5643 5642 5642 5641 5641 5639 5639 5638 5638 5638 5639 5641 5642 5644 5647 5649 5652 5654 5656 5658 5661 5664 5665 5668 5670 5672 5675 5680 5683 5684 5685
5646 5645 5643 5642 5640 5638 5636 5635 5633 5632 5631 5630 5629 5627 5627 5626 5625 5624 5624 5624 5624 5624 5625 5626 5627 5629 5631 5633 5635 5638 5640 5643 5645 5648 5651 5653 5655 5658 5660 5663 5666 5669 5671
5634 5633 5631 5629 5627 5625 5623 5622 5620 5619 5618 5616 5615 5613 5612 5610 5610 5610 5610 5610 5611 5611 5612 5612 5613 5615 5617 5619 5621 5623 5626 5628 5630 5633 5636 5639 5641 5643 5645 5647 5650 5653 5657
5622 5620 5618 5617 5615 5612 5611 5610 5608 5607 5605 5604 5602 5600 5598 5596 5596 5596 5596 5597 5597 5598 5598 5599 5600 5602 5604 5606 5608 5609 5612 5614 5617 5620 5622 5625 5627 5629 5631 5633 5635 5638 5642
5610 5608 5606 5604 5602 5600 5599 5597 5595 5594 5593 5591 5590 5587 5585 5584 5583 5583 5583 5583 5584 5585 5586 5587 5588 5590 5591 5593 5595 5597 5599 5601 5604 5607 5609 5611 5614 5616 5618 5620 5622 5625 5628
5598 5596 5595 5593 5591 5589 5587 5585 5584 5582 5581 5579 5578 5576 5574 5572 5570 5570 5570 5570 5571 5572 5573 5574 5576 5577 5579 5581 5582 5584 5586 5589 5591 5594 5597 5600 5602 5604 5606 5607 5610 5611 5614
5587 5586 5584 5582 5580 5578 5576 5574 5573 5571 5570 5568 5567 5565 5562 5560 5559 5558 5558 5558 5559 5560 5561 5563 5564 5566 5567 5569 5571 5572 5574 5576 5579 5582 5584 5587 5589 5591 5593 5595 5598 5600 5602
5577 5575 5574 5572 5570 5568 5566 5564 5562 5560 5559 5557 5555 5554 5551 5549 5548 5547 5546 5546 5547 5548 5550 5551 5553 5554 5556 5557 5558 5560 5561 5563 5566 5569 5572 5574 5577 5579 5582 5584 5587 5589 5591
5567 5566 5564 5562 5560 5558 5556 5554 5552 5550 5548 5546 5545 5543 5540 5538 5537 5536 5535 5536 5536 5537 5538 5540 5542 5543 5544 5545 5547 5547 5549 5551 5554 5557 5560 5562 5565 5568 5571 5574 5576 5578 5580
5557 5555 5554 5552 5550 5548 5546 5544 5542 5539 5537 5536 5534 5532 5530 5528 5526 5525 5525 5525 5525 5526 5528 5529 5531 5532 5533 5534 5535 5536 5538 5540 5542 5545 5548 5551 5554 5557 5561 5564 5566 5568 5570
5547 5545 5544 5542 5540 5538 5536 5533 5531 5529 5527 5525 5523 5522 5520 5518 5516 5515 5515 5515 5516 5517 5518 5519 5520 5522 5523 5524 5525 5526 5528 5530 5532 5535 5538 5541 5544 5547 5551 5554 5556 5558 5560
5537 5535 5534 5532 5530 5527 5525 5523 5521 5519 5517 5515 5513 5512 5510 5508 5507 5506 5505 5506 5507 5507 5509 5510 5511 5512 5513 5514 5515 5516 5518 5520 5523 5526 5529 5532 5535 5538 5541 5544 5547 5549 5551
5527 5526 5524 5522 5520 5518 5516 5514 5511 5509 5507 5506 5504 5502 5500 5499 5497 5497 5496 5496 5497 5498 5499 5500 5502 5503 5504 5505 5506 5507 5509 5511 5514 5517 5520 5523 5526 5529 5532 5535 5538 5540 5541
5517 5516 5514 5512 5510 5508 5506 5504 5502 5500 5498 5496 5495 5493 5491 5490 5488 5487 5487 5488 5488 5489 5491 5491 5492 5493 5494 5495 5496 5498 5500 5503 5505 5508 5511 5514 5518 5521 5524 5527 5529 5531 5533
5507 5505 5504 5503 5501 5499 5497 5495 5493 5491 5489 5487 5486 5484 5483 5481 5480 5479 5479 5479 5480 5481 5482 5483 5483 5484 5486 5487 5488 5490 5492 5495 5498 5501 5504 5507 5509 5512 5515 5517 5520 5522 5524
5497 5495 5494 5493 5491 5489 5487 5485 5484 5482 5480 5478 5477 5475 5474 5473 5471 5471 5471 5471 5472 5473 5474 5475 5475 5476 5478 5479 5481 5483 5485 5488 5491 5493 5496 5499 5501 5504 5506 5509 5511 5513 5515
5487 5485 5484 5483 5482 5479 5477 5476 5474 5472 5470 5469 5467 5466 5465 5463 5463 5462 5462 5463 5464 5465 5466 5467 5468 5469 5471 5472 5474 5476 5478 5481 5483 5486 5488 5490 5492 5495 5497 5500 5502 5504 5506
5477 5475 5474 5473 5472 5469 5467 5465 5464 5462 5460 5458 5457 5456 5455 5454 5453 5454 5454 5455 5457 5458 5459 5460 5461 5462 5464 5465 5467 5469 5471 5473 5476 5478 5480 5482 5484 5487 5489 5492 5494 5496 5498
5466 5465 5464 5463 5462 5460 5458 5456 5454 5452 5450 5449 5448 5447 5446 5445 5445 5446 5447 5448 5449 5451 5452 5453 5455 5456 5457 5458 5460 5462 5464 5466 5469 5471 5473 5475 5477 5479 5482 5484 5486 5488 5490
5456 5455 5454 5453 5452 5450 5448 5446 5444 5442 5441 5440 5439 5438 5437 5438 5438 5439 5440 5441 5443 5444 5446 5447 5449 5450 5451 5452 5454 5456 5458 5460 5462 5464 5466 5468 5470 5472 5475 5477 5479 5481 5484
5447 5446 5445 5444 5443 5441 5439 5437 5435 5434 5433 5432 5431 5431 5430 5430 5431 5432 5433 5435 5436 5439 5440 5442 5443 5444 5446 5447 5449 5451 5453 5454 5456 5458 5460 5462 5464 5467 5469 5471 5473 5475 5477
5438 5437 5436 5435 5434 5433 5432 5430 5428 5427 5426 5425 5425 5424 5424 5425 5425 5426 5427 5428 5430 5432 5434 5435 5437 5439 5441 5442 5444 5446 5448 5450 5451 5453 5456 5458 5460 5462 5464 5466 5468 5469 5471